Regional Weather Roundup
Issued by NWS

Home | Current Version | Previous Version | Graphics & Text | Print | Product List | Glossary On
Versions: 1 2 3 4 5 6 7 8 9 10 11 12 13 14 15 16 17 18 19 20 21 22 23 24 25 26 27 28 29 30 31 32 33 34 35 36 37 38 39 40 41 42 43 44 45 46 47 48 49 50
000
ASUS43 KLMK 132110
RWRKY
KENTUCKY REGIONAL WEATHER ROUNDUP
NATIONAL WEATHER SERVICE LOUISVILLE KY
500 PM EDT SUN JUL 13 2014

NOTE "FAIR" INDICATES FEW OR NO CLOUDS BELOW 12,000 FEET
WITH NO SIGNIFICANT WEATHER AND/OR OBSTRUCTIONS TO VISIBILITY.

KYZ001>023-026-027-061>063-070>075-132200-
WESTERN AND SOUTH CENTRAL KENTUCKY

CITY           SKY/WX    TMP DP  RH WIND       PRES   REMARKS
PADUCAH        MOSUNNY   93  75  55 SW14      29.96F HX 104
HENDERSON      PTSUNNY   90  73  58 SW9G16    29.94S HX  98
OWENSBORO      MOSUNNY   94  71  47 SW17      29.94F HX 101
HOPKINSVILLE   SUNNY     94  70  46 SW17      29.98F HX  99
BOWLING GREEN  MOSUNNY   93  68  43 SW13G21   29.97F HX  97
GLASGOW        SUNNY     93  67  42 SW14      29.98S HX  96
$$

KYZ024-025-028>034-038-045-046-053-132200-
NORTH CENTRAL KENTUCKY

CITY           SKY/WX    TMP DP  RH WIND       PRES   REMARKS
LOUISVILLE/SDF PTSUNNY   96  68  39 SW18G24   29.92S HX 101
LOUISVILLE/LOU MOSUNNY   94  67  41 SW10G20   29.93R HX  97
FORT KNOX      MOSUNNY   91  73  55 SW13G20   29.94S HX  98
$$

KYZ035>037-039>044-047>052-055>060-089>105-132200-
NORTHEAST KENTUCKY

CITY           SKY/WX    TMP DP  RH WIND       PRES   REMARKS
LEXINGTON      MOSUNNY   92  68  45 SW14G24   29.97S HX  96
COVINGTON      CLOUDY    76  71  85 S7        29.94R
FRANKFORT      MOSUNNY   92  70  48 SW16      29.94S HX  97
$$

KYZ054-064>069-076>088-106>120-132200-
SOUTHEAST KENTUCKY

CITY           SKY/WX    TMP DP  RH WIND       PRES   REMARKS
JACKSON        SUNNY     93  64  38 MISG      30.00F HX  94
LONDON         MOSUNNY   91  67  44 SW12      30.01F HX  94
SOMERSET       MOSUNNY   91  59  33 SW10G21   30.01S HX  90
MIDDLESBORO    MOSUNNY   88  70  55 SW6       30.04F HX  92
MONTICELLO     PTCLDY    93  68  44 SW8       30.02F HX  97
$$



USA.gov is the U.S. government's official web portal to all federal, state and local government web resources and services.